Regional Weather Roundup
Issued by NWS Goodland, KS

Home | Current Version | Previous Version | Graphics & Text | Print | Product List | Glossary On
Versions: 1 2 3 4 5 6 7 8 9 10 11 12 13 14 15 16 17 18 19 20 21 22 23 24 25 26 27 28 29 30 31 32 33 34 35 36 37 38 39 40 41 42 43 44 45 46 47 48 49 50
000
ASUS43 KGLD 270959
RWRGLD

GOODLAND FORECAST AREA HOURLY WEATHER ROUNDUP
NATIONAL WEATHER SERVICE GOODLAND KS
400 AM MDT WED JUL 27 2016

...OFFICIAL OBSERVATIONS...

CITY           SKY/WX    TMP DP  RH WIND       PRES   REMARKS
GOODLAND KS    CLOUDY    65  60  84 E12G21    30.11R
HILL CITY KS   CLOUDY    66  61  84 E6        30.09S
IMPERIAL NEB   CLOUDY    62  57  83 E9G18     30.11R
MCCOOK NEB     CLOUDY    63  59  87 SE3       30.09R
AKRON CO       PTCLDY    66  55  67 S10       30.12S
BURLINGTON CO  PTCLDY    72  52  49 VRB5G24   30.15R
LIMON CO       NOT AVBL
$$

...UNOFFICIAL OBSERVATIONS...

CITY           SKY/WX    TMP DP  RH WIND       PRES   REMARKS
COLBY KS       CLEAR     64  63  94 NE13      30.13R
LENORA KS        N/A     67  32  27 MISG        N/A
NORTON KS      CLEAR     64  55  72 S3        30.05
YUMA CO          N/A     64  59  83 SE6         N/A
$$




USA.gov is the U.S. government's official web portal to all federal, state and local government web resources and services.